Hamilton, OH

6:36 PM EDT on July 27, 2017 (GMT -0400)
Butler County Regional

Weather History for KHAO - March, 2013

Change the Weather History Date:

Saturday, March 9, 2013

  Actual Average (KLUK) Record (KLUK)
Temperature  
Mean Temperature 41 °F -  
Max Temperature 57 °F 52 °F 76 °F (1974)
Min Temperature 25 °F 31 °F 9 °F (1984)
Degree Days  
Heating Degree Days 24    
Moisture  
Dew Point 29 °F    
Average Humidity 63    
Maximum Humidity 92    
Minimum Humidity 35    
Precipitation  
Precipitation 0.00 in - - ()
Sea Level Pressure  
Sea Level Pressure 30.25 in    
Wind  
Wind Speed 3 mph (ESE)    
Max Wind Speed 9 mph    
Max Gust Speed -    
Visibility 10 miles    
Events Rain    
Averages and records for this station are not official NWS values.
T = Trace of Precipitation, MM = Missing Value Source: NWS Daily Summary

Daily Weather History Graph

Daily Weather History Graph

Search for Another Location

Airport or City:

Trip Planner

Search our weather history database for the weather conditions in past years. The results will help you decide how hot, cold, wet, or windy it might be!

Date:

Astronomy

Mar. 09, 2013 Rise Set
Actual Time 6:58 AM EST 6:39 PM EST
Civil Twilight 6:31 AM EST 7:05 PM EST
Nautical Twilight 6:00 AM EST 7:37 PM EST
Astronomical Twilight 5:29 AM EST 8:08 PM EST
Moon 5:21 AM EST (3/9) 4:40 PM EST (3/9)
Length of Visible Light 12h 34m
Length of Day
11h 40m
Waning Crescent, 5% of the Moon is Illuminated
Mar 9
Waning Crescent
Mar 11
New
Mar 19
First Quarter
Mar 27
Full
Apr 3
Last Quarter

Hourly Weather History & Observations

Time (EST) Temp. Windchill Dew Point Humidity Pressure Visibility Wind Dir Wind Speed Gust Speed Precip Events Conditions
12:53 AM 25.0 °F - 21.9 °F 88% 30.41 in 9.0 mi Calm Calm - N/A   Clear
1:53 AM 26.1 °F - 23.0 °F 88% 30.40 in 9.0 mi Calm Calm - N/A   Clear
2:53 AM 25.0 °F - 21.9 °F 88% 30.37 in 8.0 mi Calm Calm - N/A   Clear
3:53 AM 27.0 °F - 24.1 °F 89% 30.36 in 8.0 mi Calm Calm - N/A   Clear
4:53 AM 25.0 °F - 21.9 °F 88% 30.35 in 7.0 mi Calm Calm - N/A   Clear
5:53 AM 25.0 °F 20.7 °F 23.0 °F 92% 30.36 in 8.0 mi ENE 3.5 mph - N/A   Clear
6:53 AM 27.0 °F 21.6 °F 24.1 °F 89% 30.35 in 8.0 mi East 4.6 mph - N/A   Clear
7:53 AM 33.1 °F 28.7 °F 27.0 °F 78% 30.33 in 10.0 mi ESE 4.6 mph - N/A   Clear
8:53 AM 37.0 °F 32.4 °F 28.0 °F 70% 30.33 in 10.0 mi Variable 5.8 mph - N/A   Clear
9:53 AM 39.9 °F 37.8 °F 28.0 °F 63% 30.33 in 10.0 mi Variable 3.5 mph - N/A   Partly Cloudy
10:53 AM 44.1 °F 40.1 °F 28.9 °F 55% 30.33 in 10.0 mi ESE 6.9 mph - N/A   Clear
11:53 AM 46.0 °F 41.4 °F 30.0 °F 54% 30.30 in 10.0 mi ESE 9.2 mph - N/A   Clear
12:53 PM 50.0 °F - 32.0 °F 50% 30.27 in 10.0 mi East 8.1 mph - N/A   Clear
1:53 PM 54.0 °F - 30.9 °F 41% 30.23 in 10.0 mi SSE 8.1 mph - N/A   Clear
2:53 PM 55.9 °F - 30.9 °F 39% 30.19 in 10.0 mi Variable 4.6 mph - N/A   Clear
3:53 PM 55.9 °F - 30.9 °F 39% 30.16 in 10.0 mi SE 5.8 mph - N/A   Clear
4:53 PM 57.9 °F - 30.0 °F 35% 30.14 in 10.0 mi Variable 5.8 mph - N/A   Clear
5:53 PM 55.9 °F - 30.9 °F 39% 30.13 in 10.0 mi SE 3.5 mph - N/A   Mostly Cloudy
6:53 PM 51.1 °F - 36.0 °F 56% 30.13 in 10.0 mi East 4.6 mph - N/A   Overcast
7:53 PM 52.0 °F - 34.0 °F 50% 30.12 in 10.0 mi Calm Calm - N/A   Overcast
8:53 PM 50.0 °F - 36.0 °F 59% 30.12 in 10.0 mi Calm Calm - 0.00 in Rain Light Rain
9:53 PM 50.0 °F - 36.0 °F 59% 30.09 in 10.0 mi East 3.5 mph - 0.00 in   Mostly Cloudy
10:53 PM 51.1 °F - 35.1 °F 54% 30.07 in 10.0 mi East 3.5 mph - N/A   Partly Cloudy
11:53 PM 53.1 °F - 32.0 °F 45% 30.06 in 10.0 mi SE 3.5 mph - N/A   Mostly Cloudy